RH
35 31 28 26 24 24 33 40 42 40 44 58 71 77 82 94 100 100 100 99 86 70 69 70 69 69 78 83 65 73 56 44 44 51 47 29 27 27 30 30 25 27 27
50 42 35 32 27 35 44 49 44 55 64 76 92 99 100 100 100 100 99 85 66 67 70 82 89 91 87 91 86 84 94 97 98 46 31 31 34 34 35 30 37 42 46
56 55 51 44 46 66 67 77 70 78 96 99 99 100 100 100 100 97 81 72 67 78 91 96 97 93 90 98 100 99 100 87 43 39 45 47 49 40 48 56 59 55 42
66 59 70 100 98 99 100 99 100 99 100 100 100 100 100 100 91 85 75 70 80 93 98 95 93 99 100 99 100 94 41 37 41 50 55 62 61 64 71 78 72 65 60
85 91 88 93 99 100 100 99 100 100 100 100 100 100 99 97 88 68 79 95 97 97 96 100 99 99 99 93 40 28 42 60 67 69 71 71 74 75 84 87 90 74 80
98 98 99 99 100 100 100 100 100 100 100 99 94 91 87 82 90 95 95 94 98 100 99 99 98 77 30 25 29 33 37 47 52 70 74 88 88 88 94 90 90 91 93
97 99 99 99 99 100 100 100 99 98 96 92 88 91 94 96 99 100 100 100 99 100 98 86 32 26 24 24 25 23 22 30 60 92 86 89 94 95 94 95 91 94 96
99 100 100 98 96 97 96 96 95 95 91 92 97 100 100 100 100 100 100 100 95 63 33 28 26 25 26 24 18 25 47 44 66 79 84 86 89 96 99 100 100 91 85
99 100 100 100 100 100 99 100 100 100 100 99 100 100 100 99 100 100 78 38 35 31 30 31 30 27 21 17 29 71 97 95 85 74 58 60 65 66 76 80 79 91 88
99 99 100 100 100 100 100 100 100 100 100 99 99 99 97 70 36 37 40 36 33 36 32 30 26 19 24 78 100 100 93 71 57 46 43 48 62 71 76 83 88 94 97
99 99 100 100 100 100 99 99 99 100 99 86 44 40 41 42 47 44 34 38 35 27 20 19 28 44 85 98 97 91 63 89 90 60 55 69 69 72 74 76 82 92 98
99 99 99 99 99 100 100 86 57 41 38 38 40 41 39 36 37 35 32 28 22 22 31 36 49 89 95 82 62 46 87 70 49 68 73 72 74 76 78 81 82 84 88
99 100 96 80 66 57 47 40 39 40 41 40 38 31 26 25 24 22 22 30 37 44 48 63 74 70 48 40 39 39 42 59 77 77 75 76 83 85 81 80 78 84 83
63 65 65 59 47 40 37 39 42 41 34 25 23 23 22 19 20 23 32 37 48 57 47 47 47 42 40 40 40 48 72 78 81 83 84 83 85 83 82 89 87 87 84
65 58 49 42 36 36 39 40 34 25 22 22 20 16 16 21 34 64 71 56 48 44 45 38 38 36 36 37 56 75 78 80 83 87 86 86 87 90 87 89 90 89 94
54 48 39 35 38 42 37 25 23 22 21 15 12 16 22 26 32 35 36 38 37 35 36 37 37 38 43 66 76 76 80 86 89 89 88 91 93 93 89 85 93 92 90
50 34 32 37 42 33 23 22 23 22 15 13 17 21 24 27 31 36 39 37 38 37 38 41 44 50 74 81 82 83 84 89 92 91 90 94 97 94 94 86 87 90 87
33 30 37 41 30 22 21 21 18 12 14 18 22 24 29 33 36 41 41 39 39 41 44 47 54 80 83 84 86 87 90 92 92 91 90 93 98 100 100 93 95 96 95
30 35 39 30 22 21 21 17 12 14 16 19 24 30 35 39 42 44 43 42 39 44 48 56 84 87 88 89 91 92 94 94 94 93 93 94 98 100 97 97 92 94 99
31 39 31 22 21 22 18 11 14 17 20 24 30 35 41 40 43 45 46 45 45 50 56 77 87 89 92 93 94 94 91 91 92 91 90 93 98 100 100 94 89 94 89
39 35 24 21 22 20 12 14 17 20 26 31 36 42 48 49 48 49 49 47 46 53 62 83 86 90 94 95 96 94 93 93 93 89 90 93 96 100 100 93 91 95 95
38 27 22 22 22 13 14 17 20 26 32 37 41 44 48 50 51 53 51 48 48 56 67 82 85 90 93 95 97 97 95 95 95 92 93 95 96 99 99 98 100 96 98
31 23 22 23 17 14 17 19 25 31 36 41 45 48 49 50 50 52 49 45 43 50 63 80 82 83 88 90 93 97 97 100 100 97 100 98 94 93 98 100 98 97 97
27 22 23 22 14 15 17 23 30 36 42 47 50 50 50 50 49 50 48 43 42 46 57 75 80 82 86 89 94 94 96 100 100 95 96 95 99 98 100 98 97 96 96
24 23 24 16 14 16 22 29 35 42 46 49 49 50 50 50 50 50 47 42 40 43 55 73 79 84 88 91 96 96 98 99 96 96 99 99 95 98 97 98 97 93 97
24 24 21 13 15 20 27 34 41 44 46 49 51 51 50 49 48 46 44 40 39 44 60 73 80 88 92 95 97 98 99 98 98 94 93 97 98 97 97 97 97 98 92
Wind_Speed
20 18 19 20 23 26 24 25 29 31 32 34 36 36 36 39 40 37 34 35 36 35 31 27 24 20 19 14 14 14 16 20 23 25 26 26 28 29 31 31 32 33 33
15 19 22 25 24 24 22 21 24 26 28 30 31 29 28 30 31 30 32 33 33 31 28 25 23 20 20 18 14 15 20 22 24 30 28 29 30 29 32 34 32 33 34
28 26 25 22 21 19 17 18 19 20 20 22 23 23 23 24 27 29 29 29 27 25 24 23 20 16 13 14 18 18 20 18 23 27 30 30 31 32 33 35 35 36 36
19 21 25 17 13 11 12 12 12 14 17 18 19 21 22 23 25 26 27 26 23 20 19 15 11 11 13 14 18 17 17 22 23 25 28 30 31 32 34 36 40 38 39
17 15 11 11 8 8 9 10 11 13 15 17 19 20 20 22 23 25 21 19 16 13 12 10 10 13 15 14 15 16 19 21 23 25 28 30 33 33 34 36 39 39 35
14 10 6 4 5 6 9 10 12 13 14 15 16 17 19 21 19 14 13 13 12 11 9 10 10 11 11 13 16 17 19 21 24 26 26 28 32 33 35 35 33 35 38
8 6 3 1 4 6 7 7 8 10 11 13 15 15 16 15 13 13 13 10 8 8 8 7 8 12 13 16 17 18 19 19 18 20 26 28 31 32 29 30 32 33 36
4 4 4 4 6 9 9 10 13 15 15 17 16 16 14 13 9 9 5 3 3 3 7 8 10 13 14 16 18 18 18 19 20 23 26 28 28 25 26 30 33 37 38
6 5 8 11 15 13 16 17 19 18 18 18 17 14 10 9 6 2 2 0 2 5 9 10 13 14 16 16 16 17 19 21 23 24 23 22 23 23 24 27 29 31 37
10 11 13 14 14 16 17 17 18 17 17 14 12 9 8 6 4 3 0 4 7 8 11 13 15 16 15 11 13 18 24 25 22 22 21 19 18 19 21 22 26 29 31
12 12 13 14 16 17 18 16 14 13 12 12 11 10 7 5 3 3 7 8 11 13 14 15 15 15 13 12 13 19 21 18 21 21 19 18 19 20 21 22 23 27 30
16 17 18 18 17 15 14 14 14 12 10 9 6 4 3 1 3 6 10 12 14 13 14 16 16 13 13 16 18 17 14 16 17 17 19 20 21 22 21 23 25 26 27
16 16 17 16 16 15 13 12 9 8 6 5 3 2 2 4 7 8 8 10 11 13 15 14 13 16 17 16 15 14 15 15 16 19 21 21 22 22 25 24 24 25 29
15 15 13 12 11 10 8 7 5 4 3 3 3 5 7 8 9 10 10 11 12 14 15 15 15 15 15 15 13 12 12 14 17 20 21 21 20 23 22 25 29 30 33
11 11 10 8 7 6 4 4 4 4 5 7 8 8 8 8 8 8 10 13 14 13 15 15 15 13 12 10 9 10 12 14 17 19 20 19 22 23 26 29 30 31 33
7 7 6 5 4 4 4 5 5 7 10 11 12 11 11 11 12 13 15 15 14 15 15 16 14 13 12 11 12 13 14 16 18 20 17 20 22 24 31 32 29 30 33
3 4 3 3 3 3 5 7 9 10 11 11 11 12 12 13 14 14 14 14 14 15 14 13 12 11 11 12 13 15 18 18 20 17 17 19 21 25 30 31 31 33 37
2 1 1 3 5 6 8 9 10 9 10 11 12 13 13 13 13 14 14 13 12 12 12 12 11 11 12 14 16 17 19 20 20 17 17 19 22 27 32 33 34 37 39
1 2 4 5 6 7 9 10 11 12 13 13 13 13 13 12 13 13 13 13 13 12 10 9 10 11 13 16 17 18 20 22 22 20 18 20 22 26 32 33 36 37 37
2 4 5 6 8 10 11 12 12 13 14 14 14 13 13 13 11 11 12 13 12 11 10 9 10 12 15 17 18 19 21 23 23 19 18 20 24 27 32 34 36 37 37
5 6 7 8 10 12 12 12 13 14 15 15 14 13 13 15 14 13 13 13 12 11 10 10 11 13 16 18 20 22 23 25 24 19 18 20 25 31 33 35 38 38 39
7 7 8 10 11 12 12 14 15 15 16 16 15 14 14 14 14 13 13 13 13 12 12 13 13 15 18 21 23 24 26 27 26 20 19 22 27 32 35 38 40 42 41
8 8 10 11 12 13 14 15 16 17 17 16 16 15 14 13 12 12 12 13 12 13 13 15 16 17 19 21 22 25 27 27 26 21 21 25 28 32 36 39 39 37 37
9 10 11 12 13 14 16 17 17 17 17 16 15 14 14 13 13 13 13 13 13 13 14 16 17 19 22 23 24 25 26 26 25 20 20 26 31 35 35 42 37 37 38
10 10 12 13 14 16 17 18 17 17 16 16 15 14 14 14 13 13 14 13 14 14 14 16 18 20 22 24 25 25 25 25 21 18 20 23 29 34 37 37 37 38 39
10 11 13 14 15 17 17 17 16 16 15 15 15 15 15 14 14 14 14 14 15 15 16 16 18 20 23 25 25 25 25 22 20 17 19 25 32 35 35 36 38 37 36
Wind_Direction
279 288 292 290 280 279 276 267 251 249 252 252 250 250 247 240 238 233 230 228 227 227 224 219 220 224 230 246 248 252 281 287 290 289 292 290 291 295 296 298 301 302 303
320 317 306 295 290 281 273 259 251 250 256 256 251 245 240 235 230 226 223 220 222 220 222 219 229 234 237 238 257 261 265 275 292 292 294 297 297 300 302 303 306 308 308
301 304 310 297 286 275 261 250 252 257 259 253 243 234 225 222 220 215 215 216 212 215 218 223 226 235 252 273 276 281 283 295 282 290 296 300 303 307 308 308 309 309 310
296 283 298 303 286 271 253 244 249 250 240 227 225 217 210 208 207 209 204 206 213 218 221 228 240 258 269 275 278 299 291 282 286 289 295 300 303 307 308 310 313 316 314
330 316 308 295 280 244 230 228 231 223 210 207 205 197 198 201 201 196 202 214 214 217 224 240 259 267 275 308 293 281 282 288 290 292 295 298 300 307 310 313 310 315 317
335 318 297 270 215 198 204 202 199 193 189 181 181 186 185 182 193 197 199 199 205 215 235 263 282 302 292 288 284 279 281 283 289 289 294 299 301 307 309 310 313 317 315
358 347 320 157 140 144 150 152 155 153 149 152 153 158 161 162 178 184 192 194 213 248 288 313 282 280 290 289 288 290 286 282 283 289 293 296 299 302 311 312 311 307 304
39 60 83 108 103 105 115 130 135 135 142 147 152 157 158 148 157 168 194 235 299 312 260 286 291 296 297 296 297 296 297 295 298 296 298 300 304 310 305 302 298 297 299
74 90 99 110 112 124 126 132 132 134 136 131 131 130 138 138 155 152 34 89 275 289 295 299 299 304 309 307 304 306 299 299 305 301 296 297 300 303 303 301 305 305 306
80 88 90 102 105 108 114 114 117 124 127 128 131 135 122 96 100 72 172 286 302 305 311 315 314 312 308 318 306 299 304 309 307 305 312 311 311 311 311 308 308 307 310
91 91 93 96 103 106 112 113 115 117 122 111 101 100 91 88 120 249 297 317 315 319 316 313 317 320 322 307 300 297 304 310 300 307 314 319 320 318 317 315 315 314 312
97 99 101 104 103 103 106 107 102 92 92 95 97 96 89 38 317 309 306 301 302 311 318 320 321 323 303 309 313 314 312 307 315 317 321 325 325 326 325 324 320 316 312
106 105 105 103 101 92 85 85 90 89 79 77 71 31 331 309 304 306 309 311 319 320 318 319 319 318 320 322 323 322 320 320 321 322 324 328 329 330 330 329 329 328 321
107 104 100 97 98 100 98 94 85 77 56 35 2 345 338 332 327 319 318 322 325 327 326 331 329 329 331 329 328 325 324 324 325 325 325 328 331 334 338 336 332 332 327
108 103 102 99 95 90 87 80 56 34 11 353 344 337 332 330 330 324 330 331 329 330 327 332 331 332 333 331 332 331 330 328 326 326 326 329 332 335 336 337 335 334 331
107 111 110 102 90 65 41 24 11 359 356 354 350 342 337 333 321 321 328 328 333 330 333 332 336 337 340 344 343 340 337 332 330 328 327 329 331 335 336 341 342 340 336
110 103 83 57 33 20 10 0 350 343 340 334 326 322 322 322 320 324 324 329 329 329 331 334 336 338 343 343 338 335 335 334 331 325 323 328 332 335 336 341 342 340 337
143 120 32 11 3 352 341 331 327 328 329 325 321 321 321 320 322 324 324 327 327 328 330 332 336 338 338 336 334 332 333 333 331 322 320 327 332 333 335 338 340 337 335
160 356 338 326 322 323 325 328 332 331 326 322 320 319 319 322 322 321 321 325 328 329 329 330 330 333 334 332 330 331 332 334 331 325 320 323 328 331 335 337 336 336 335
290 295 300 312 321 324 327 328 326 322 319 319 320 321 320 321 321 318 321 324 324 324 322 325 328 330 330 331 331 329 331 333 329 321 319 326 332 331 331 335 337 335 336
271 285 299 309 316 320 322 322 321 320 319 320 322 321 318 316 321 320 320 320 316 315 317 319 321 324 327 329 331 330 328 331 330 324 321 324 332 333 333 333 336 336 333
270 284 297 307 314 319 321 322 321 320 320 321 320 316 312 312 313 313 316 316 313 313 313 314 317 323 326 328 329 328 326 326 330 325 324 326 329 332 335 335 334 332 330
271 285 298 310 318 320 321 321 319 318 318 317 315 316 316 313 311 308 312 311 309 309 306 307 310 317 320 321 322 322 322 325 325 321 324 325 328 332 336 330 326 328 330
274 288 305 315 317 318 319 319 318 318 318 317 317 318 317 313 311 310 312 310 308 307 304 303 308 313 317 320 320 318 321 323 321 319 321 325 329 332 328 326 327 328 327
279 296 309 313 316 319 320 319 320 319 318 316 318 318 316 314 311 309 308 307 307 306 303 304 308 313 316 318 318 319 322 322 320 321 319 319 324 327 325 327 329 329 329
284 299 309 314 317 319 319 320 319 318 318 318 319 318 316 314 313 311 309 308 308 307 306 308 312 314 317 317 316 320 323 324 322 318 320 323 325 324 326 328 331 329 327